Location: Oshawa
(43.9000°N, 78.8670°W)
Time: 09:44:39
(UTC-04:00)

Explorer 11/Cluster Stage 4 - Visible Passes

Search period start: 26 May 2015 00:00
Search period end: 05 June 2015 00:00
Orbit: 467 x 1272 km, 28.8° (Epoch: 25 May)

Date Brightness Start Highest point End Pass type
(mag) Time Alt. Az. Time Alt. Az. Time Alt. Az.
30 May 8.6 22:39:34 10° SSW 22:41:48 14° S 22:41:48 14° S visible
31 May 8.3 22:30:11 10° SSW 22:34:17 17° S 22:34:31 17° S visible
01 Jun 8.2 22:20:55 10° SW 22:25:35 19° S 22:27:01 17° SSE visible
02 Jun 8.3 22:11:44 10° SW 22:16:51 20° S 22:19:20 17° SSE visible
03 Jun 8.9 00:00:45 10° SW 00:01:37 12° SW 00:01:37 12° SW visible
03 Jun 8.3 22:02:36 10° SW 22:08:06 22° S 22:11:29 15° SE visible
03 Jun 8.7 23:51:52 10° SW 23:53:47 15° SW 23:53:47 15° SW visible
04 Jun 8.4 21:53:32 10° SW 21:59:19 23° S 22:03:31 13° SE visible
04 Jun 8.7 23:43:01 10° SW 23:45:48 16° SSW 23:45:48 16° SSW visible
